Location: Pasarilla del Rebollar
(40.6790°N, 5.0062°W)
Time: 11:35:44
(UTC+00:00)

Cosmos 1092 Rocket - Pass Details

Date: 22 April 2026
Orbit: 952 x 995 km, 83.0° (Epoch: 15 May)

Event Time Altitude Azimuth Distance (km) Brightness Sun altitude
Rises 01:41:39 0° 351° (N) 3,641 7.7 -33.8°
Reaches altitude 10° 01:44:09 10° 350° (N) 2,689 6.9 -33.6°
Enters shadow 01:48:44 52° 339° (NNW) 1,167 4.5 -33.2°
